Weather in Lar'yak

Russia / Khanty-Mansi Autonomous Okrug — Yugra     61°06′04″N   80°15′38″E
temp.,
°C
wind,
m/s
gust,
m/s
humid.,
%
clouds,
%
prec.,
mm/h
press.,
hPa
HPBL,
m
4 march, thu
thu423:00−11s61390100 0.1 1006718
02:00−11s51193100 0.4 1005810
05:00−12ssw41091100 0.7 1005700
08:00−11s41092100 0.1 1004596
11:00−9s4992100 0.3 1004622
14:00−7s4991100 0.3 1003675
17:00−7sse3109399 0.4 1003478
20:00−6sse41093100 0.1 1001526
5 march, fri
fri523:00−5sse41095100 0.4 999529
02:00−4sse41094100 0.3 997528
05:00−4sse41095100 0.6 995514
08:00−2s4996100 0.7 995769
11:00−1ssw4897100 1.9 995580
14:00−1wsw3693100 0.6 995659
17:00−3sw51092100 1.3 998685
20:00−5sw4119397 0.3 999562
6 march, sat
sat623:00−8ssw379597 0.4 1000252
02:00−8s2796100 0.2 1000260
05:00−10s259695 0.3 1001129
08:00−11s249764 0.0 1000120
11:00−6sse239375 0.1 999404
14:00−4sse2392100 0.1 998430
17:00−5sse129799 0.5 99829
20:00−7ssw269797 0.1 997160
7 march, sun
sun723:00−7sw389697 0.3 998292
02:00−8wsw3895100 0.8 999394
05:00−8wsw3995100 1.1 1001448
08:00−9wsw4109399 0.3 1003616
11:00−9wsw489299 0.4 1005611
14:00−9sw4690100 0.1 1007761
17:00−11ssw2793100 0.3 1008258
20:00−15ssw239789 0.0 100873
8 march, mon
mon823:00−15s229695 0.0 100720
02:00−15e1196100 0.0 100520
05:00−15ne1297100 0.1 100523
08:00−14nnw1196100 0.1 100559
11:00−11wnw239599 0.1 1006328
14:00−11wnw2492100 0.1 1007451
17:00−14wnw239699 0.1 100945
20:00−18w239811 0.0 101130